Miscellaneous Local Product
Issued by NWS North Platte, NE

Home | Current Version | Previous Version | Text Only | Print | Product List | Glossary On
Versions: 1 2 3 4 5 6 7 8 9 10 11 12 13 14 15 16 17 18 19 20 21 22 23 24 25 26 27 28 29 30 31 32 33 34 35 36 37 38 39 40 41 42 43 44 45 46 47 48 49 50
000
AXUS43 KLBF 182010
MISLBF


WESTERN AND NORTH CENTRAL NEBRASKA HOURLY WEATHER ROUNDUP
NATIONAL WEATHER SERVICE NORTH PLATTE NE
300 PM CDT THU SEP 18 2014

***STATIONS NOT REPORTING VARIABLES SUCH AS SKY/WEATHER OR
PRESSURE ARE PROVIDED BY THE NEBRASKA DEPARTMENT OF
ROADS...RAWS...AND APRS NETWORKS...AND ARE NOT UNDER
NATIONAL WEATHER SERVICE QUALITY CONTROL***

...OBSERVATIONS IN AND NEAR THE EASTERN PANHANDLE OF NEBRASKA...

CITY           SKY/WX    TMP DP  RH WIND       PRES   REMARKS
PINE RIDGE     SUNNY     87  58  37 S10       29.84F
CHADRON        SUNNY     91  52  26 S12       29.81F
ALLIANCE       SUNNY     85  56  37 S13       29.90F
SIDNEY         SUNNY     86  55  34 S12       29.95F
WHITECLAY        N/A     87  56  34 S10         N/A
RUSHVILLE        N/A     93  48  21 S14         N/A  HX  90
CRESCENT LAKE    N/A     81  64  55 S9G16       N/A
LISCO            N/A     89  50  25 E12         N/A
BIG SPRINGS      N/A     75  66  73 S6          N/A
$$

...OBSERVATIONS IN NORTH CENTRAL NEBRASKA...

CITY           SKY/WX    TMP DP  RH WIND       PRES   REMARKS
VALENTINE      MOSUNNY   76  62  62 SW21      29.89F
THEDFORD       PTSUNNY   77  63  61 S15       29.94F
AINSWORTH      SUNNY     78  55  45 S23       29.91F
O`NEILL        SUNNY     76  62  61 S18G25    29.95F
ORD            SUNNY     77  56  48 SE18G25   29.93F
BROKEN BOW     MOSUNNY   79  62  56 S15G26    29.95F
SPRINGVIEW       N/A     80  60  50 S9G21       N/A
ROSE             N/A     81  64  55 E17         N/A
NEWPORT          N/A     78  59  51 S17         N/A
COMSTOCK         N/A     82  67  61 S14         N/A
CHAMBERS         N/A     77  60  54 S10G18      N/A
$$

...OBSERVATIONS IN SOUTHWEST NEBRASKA AND FAR NORTHEAST COLORADO...

CITY           SKY/WX    TMP DP  RH WIND       PRES   REMARKS
WRAY           FAIR      85  59  41 SE7G17    29.94F
HOLYOKE        FAIR      79  63  57 SE12      29.95F
IMPERIAL       CLOUDY    69  63  81 SE17      29.95F
OGALLALA       CLOUDY    73  64  73 SE10      29.95S
NORTH PLATTE   CLOUDY    69  61  75 SE12      29.96F
MCCOOK         CLOUDY    66  64  93 SE9       29.96F FOG
LEXINGTON      CLOUDY    71  64  78 SE13      29.96F
PAXTON           N/A     69  65  86 SE7         N/A
SUTHERLAND       N/A     66  62  86 SE9         N/A
BRADY            N/A     68  62  79 CALM        N/A
GOTHENBURG       N/A     68  58  69 SE10        N/A
CALLAWAY         N/A     71  63  76 S18         N/A
$$

...SOME WEATHER OBSERVATIONS FROM AROUND THE REGION...

CITY           SKY/WX    TMP DP  RH WIND       PRES   REMARKS
DENVER         MOSUNNY   89  35  14 SW12G18   30.00F
LARAMIE        SUNNY     81  28  14 S12       30.11F
CHEYENNE       SUNNY     86  28  12 MISG      30.04F
SCOTTSBLUFF    MOSUNNY   87  55  33 E10       29.90F
RAPID CITY     PTSUNNY   86  56  35 SE12      29.79F
PIERRE         MOSUNNY   82  61  48 S26       29.79F
WINNER         FAIR      82  57  42 S20G28    29.86F
SIOUX FALLS    MOSUNNY   77  54  44 S18G25    29.96F
OMAHA          MOSUNNY   75  54  47 SE12      29.99F
GRAND ISLAND   MOSUNNY   78  61  55 SE13G23   29.96F
KANSAS CITY    CLOUDY    65  60  84 E10       30.02S
WICHITA        MOSUNNY   87  56  34 SE16G22   29.94F
HAYS           SUNNY     86  66  51 S24G31    29.89F
LIBERAL        MOSUNNY   90  57  33 S13G25    29.96F
GOODLAND       SUNNY     81  60  48 SE13      29.96F
$$



USA.gov is the U.S. government's official web portal to all federal, state and local government web resources and services.